DELTA 1 DEB, 14497

Orbit data source: Space-Track

DELTA 1 DEB, 14497 is space debris in LEO originally from a launch on Thu, 14 Jul 1977 UTC launched from the Air Force Eastern Test Range (AFETR). Debris objects in space refer to the collection of defunct objects orbiting the Earth. Examples of debris include non-operational satellites, rocket bodies, and fragments generated from explosions, collisions, or faulty payload assembly.

Loading next visibility...
Identifier
14497, 1977-065FN
Orbit
LEO
Country
Flag of USUS
Related business
Manufacturer
Unknown
Mission
Spacecraft
Bus & Motor
Unknown
Mass
Unknown
Launch date (UTC)
1977-07-14 (48 years ago)
Launch vehicle
Unknown
Launch site
Air Force Eastern Test Range (AFETR)
Object type
Payload
Rocket body
Debris
Shape & HBR
Unknown shape, 0.1 m
Radar Cross Section
Medium (>0.1 m² and <1 m²)

Expand to show TLE details & history
Last TLE update: 18 hours ago

TLE from 18 hours ago
0 DELTA 1 DEB
1 14497U 77065FN  25300.98323498  .00001768  00000-0  59457-2 0  9990
2 14497  29.2910 247.7222 0881535  64.6322 357.6080 12.07776826952954
Epoch: 2025-10-27T23:35Z
TLE epoch observation values (Epoch: 2025-10-27T23:35:51.502Z)
Latitude
25.64704°
Longitude
-84.46152°
Altitude
938.528 km
Speed
7.704 km/s
True Right ascension
20h 24m 19s
True Declination
25° 30' 59"
Sunlit
Object was in daylight at epoch
Visualization orbit readout
Latitude
Unknown
Longitude
Unknown
Altitude
Unknown
Speed
Unknown
Apparent Right ascension
Unknown
Apparent Declination
Unknown
Sunlit
N/A
Visualization observer readout
Local Sidereal Time
12:54:33
Azimuth
Unknown
Elevation
Unknown
Doppler factor
Unknown
Orbital elements
Apogee altitude
2,357.484 km
Perigee altitude
942.104 km
Semi-major axis
8,027.931 km
Eccentricity
0.08815
Inclination
29.291°
RAAN
247.7222°
Arg. of periapsis
64.6322°
True anomaly
357.13454°
Mean anomaly
357.608°
Eccentric anomaly
357.37684°
Mean motion
3.01743 °/min
Orbital period
119.31 mins
BSTAR
0.0059457
Loading maneuver chart data...
Computing Atmospheric mass density...

Documentation

Showing up to 5 results
|